| time (UTC) | temp F | wind direction | speed MPH | gust MPH | rain 1hr in | rain 24hr in | rain mn in | humidity % | barometer mb |
| 20260902112031 | 88 | 337 | 7.0 | 13.0 | 0.00 | 0.00 | 0.00 | 64 | 1019.5 |
| 20260902111033 | 88 | 5 | 5.0 | 12.0 | 0.00 | 0.00 | 0.00 | 63 | 1019.6 |
| 20260902110030 | 88 | 43 | 5.0 | 12.0 | 0.00 | 0.00 | 0.00 | 65 | 1019.6 |
| 20260902105029 | 87 | 342 | 4.0 | 10.0 | 0.00 | 0.00 | 0.00 | 65 | 1019.7 |
| 20260902104028 | 87 | 10 | 6.0 | 11.0 | 0.00 | 0.00 | 0.00 | 64 | 1019.8 |
| 20260902103037 | 87 | 45 | 5.0 | 11.0 | 0.00 | 0.00 | 0.00 | 68 | 1019.9 |
| 20260902102035 | 87 | 349 | 6.0 | 11.0 | 0.00 | 0.00 | 0.00 | 67 | 1020.0 |
| 20260902095029 | 87 | 300 | 7.0 | 12.0 | 0.00 | 0.00 | 0.00 | 68 | 1020.1 |
| 20260902094024 | 86 | 326 | 7.0 | 14.0 | 0.00 | 0.00 | 0.00 | 67 | 1020.2 |
| 20260902093028 | 86 | 0 | 7.0 | 12.0 | 0.00 | 0.00 | 0.00 | 68 | 1020.0 |
| 20260902090036 | 86 | 349 | 8.0 | 12.0 | 0.00 | 0.00 | 0.00 | 68 | 1019.9 |
| 20260902085028 | 86 | 355 | 7.0 | 11.0 | 0.00 | 0.00 | 0.00 | 70 | 1019.8 |
| 20260902084015 | 85 | 312 | 6.0 | 10.0 | 0.00 | 0.00 | 0.00 | 68 | 1019.7 |
| 20260902083016 | 85 | 341 | 7.0 | 12.0 | 0.00 | 0.00 | 0.00 | 68 | 1019.6 |
| 20260902082017 | 85 | 332 | 7.0 | 12.0 | 0.00 | 0.00 | 0.00 | 69 | 1019.5 |
| 20260902081016 | 86 | 348 | 6.0 | 11.0 | 0.00 | 0.00 | 0.00 | 68 | 1019.5 |
| 20260902080024 | 86 | 329 | 4.0 | 9.0 | 0.00 | 0.00 | 0.00 | 66 | 1019.5 |
| 20260902075015 | 86 | 49 | 4.0 | 7.0 | 0.00 | 0.00 | 0.00 | 68 | 1019.4 |
| 20260902073019 | 85 | 277 | 4.0 | 9.0 | 0.00 | 0.00 | 0.00 | 68 | 1019.2 |
| 20260902072027 | 85 | 291 | 5.0 | 9.0 | 0.00 | 0.00 | 0.00 | 66 | 1019.2 |
| 20260902071015 | 86 | 296 | 3.0 | 8.0 | 0.00 | 0.00 | 0.00 | 66 | 1019.3 |
| 20260902070017 | 86 | 263 | 2.0 | 6.0 | 0.00 | 0.00 | 0.00 | 67 | 1019.1 |
| 20260902065015 | 85 | 340 | 1.0 | 6.0 | 0.00 | 0.00 | 0.00 | 68 | 1019.1 |
| 20260902063016 | 84 | 179 | 1.0 | 4.0 | 0.00 | 0.00 | 0.00 | 71 | 1019.0 |
| 20260902062033 | 83 | 159 | 1.0 | 4.0 | 0.00 | 0.00 | 0.00 | 73 | 1018.8 |
| 20260902060022 | 81 | 218 | 2.0 | 4.0 | 0.00 | 0.00 | 0.00 | 76 | 1018.8 |
| 20260902055022 | 80 | 235 | 2.0 | 4.0 | 0.00 | 0.00 | 0.00 | 77 | 1018.8 |
| 20260902054023 | 80 | 191 | 2.0 | 4.0 | 0.00 | 0.00 | 0.00 | 78 | 1018.8 |
| 20260902053021 | 80 | 159 | 3.0 | 5.0 | 0.00 | 0.00 | 0.00 | 78 | 1018.7 |
| 20260902052011 | 79 | 223 | 3.0 | 5.0 | 0.00 | 0.00 | 0.00 | 79 | 1018.7 |
| 20260902051009 | 79 | 213 | 4.0 | 6.0 | 0.00 | 0.00 | 0.00 | 79 | 1018.8 |
| 20260902050009 | 79 | 217 | 4.0 | 6.0 | 0.00 | 0.00 | 0.00 | 79 | 1018.7 |
| 20260902045008 | 78 | 217 | 4.0 | 6.0 | 0.00 | 0.00 | 0.00 | 79 | 1018.7 |
| 20260902044008 | 79 | 192 | 3.0 | 5.0 | 0.00 | 0.00 | 0.00 | 79 | 1018.8 |
| 20260902043009 | 79 | 203 | 4.0 | 6.0 | 0.00 | 0.00 | 0.00 | 79 | 1018.8 |
| 20260902042011 | 79 | 191 | 4.0 | 6.0 | 0.00 | 0.00 | 0.00 | 79 | 1018.8 |
| 20260902041009 | 79 | 213 | 3.0 | 6.0 | 0.00 | 0.00 | 0.00 | 79 | 1018.8 |
| 20260902040008 | 79 | 196 | 4.0 | 6.0 | 0.00 | 0.00 | 0.00 | 79 | 1018.9 |
| 20260902035008 | 79 | 188 | 3.0 | 5.0 | 0.00 | 0.00 | 0.00 | 79 | 1018.8 |
| 20260902034012 | 79 | 192 | 4.0 | 6.0 | 0.00 | 0.00 | 0.00 | 79 | 1018.9 |
| 20260902031010 | 79 | 189 | 4.0 | 5.0 | 0.00 | 0.00 | 0.00 | 80 | 1018.9 |
| 20260902024001 | 79 | 191 | 3.0 | 5.0 | 0.00 | 0.00 | 0.00 | 80 | 1019.0 |
| 20260902022956 | 79 | 219 | 3.0 | 6.0 | 0.00 | 0.00 | 0.00 | 80 | 1019.0 |
| 20260902021956 | 79 | 216 | 4.0 | 6.0 | 0.00 | 0.00 | 0.00 | 80 | 1019.1 |
| 20260902020959 | 79 | 166 | 4.0 | 7.0 | 0.00 | 0.00 | 0.00 | 80 | 1019.1 |
| 20260902015956 | 79 | 211 | 3.0 | 5.0 | 0.00 | 0.00 | 0.00 | 80 | 1019.1 |
| 20260902014956 | 80 | 188 | 3.0 | 5.0 | 0.00 | 0.00 | 0.00 | 79 | 1019.1 |
| 20260902011952 | 80 | 208 | 4.0 | 6.0 | 0.00 | 0.00 | 0.00 | 79 | 1019.0 |
| 20260902010954 | 80 | 211 | 4.0 | 7.0 | 0.00 | 0.00 | 0.00 | 79 | 1019.0 |
| 20260902005956 | 80 | 207 | 4.0 | 7.0 | 0.00 | 0.00 | 0.00 | 78 | 1019.1 |
| 20260902004955 | 80 | 212 | 4.0 | 7.0 | 0.00 | 0.00 | 0.00 | 78 | 1019.1 |
| 20260902003953 | 80 | 192 | 4.0 | 7.0 | 0.00 | 0.00 | 0.00 | 78 | 1019.1 |
| 20260902002956 | 80 | 228 | 5.0 | 8.0 | 0.00 | 0.00 | 0.00 | 79 | 1019.1 |
| 20260902001955 | 80 | 205 | 4.0 | 6.0 | 0.00 | 0.00 | 0.00 | 79 | 1019.1 |
| 20260902000951 | 80 | 211 | 4.0 | 7.0 | 0.00 | 0.00 | 0.00 | 79 | 1019.1 |
| 20260901234946 | 80 | 200 | 2.0 | 5.0 | 0.00 | 0.00 | 0.00 | 78 | 1019.1 |
| 20260901233945 | 80 | 180 | 4.0 | 7.0 | 0.00 | 0.00 | 0.00 | 78 | 1019.2 |
| 20260901232947 | 80 | 198 | 4.0 | 6.0 | 0.00 | 0.00 | 0.00 | 78 | 1019.2 |
| 20260901231946 | 80 | 215 | 4.0 | 7.0 | 0.00 | 0.00 | 0.00 | 78 | 1019.3 |
| 20260901230945 | 80 | 217 | 4.0 | 7.0 | 0.00 | 0.00 | 0.00 | 78 | 1019.2 |
| 20260901225951 | 81 | 208 | 4.0 | 6.0 | 0.00 | 0.00 | 0.00 | 77 | 1019.1 |
| 20260901223953 | 81 | 213 | 3.0 | 5.0 | 0.00 | 0.00 | 0.00 | 76 | 1019.0 |
| 20260901222947 | 81 | 213 | 3.0 | 5.0 | 0.00 | 0.00 | 0.00 | 76 | 1018.9 |
| 20260901221946 | 81 | 213 | 4.0 | 6.0 | 0.00 | 0.00 | 0.00 | 76 | 1019.0 |
| 20260901220945 | 82 | 222 | 2.0 | 5.0 | 0.00 | 0.00 | 0.00 | 75 | 1019.0 |
| 20260901215946 | 82 | 232 | 2.0 | 4.0 | 0.00 | 0.00 | 0.00 | 75 | 1018.9 |
| 20260901214945 | 82 | 257 | 2.0 | 5.0 | 0.00 | 0.00 | 0.00 | 75 | 1018.9 |
| 20260901212938 | 82 | 196 | 5.0 | 10.0 | 0.00 | 0.00 | 0.00 | 74 | 1019.0 |
| 20260901211938 | 82 | 252 | 5.0 | 9.0 | 0.00 | 0.00 | 0.00 | 74 | 1019.0 |
| 20260901210939 | 82 | 268 | 6.0 | 9.0 | 0.00 | 0.00 | 0.00 | 74 | 1019.0 |
| 20260901205939 | 82 | 265 | 4.0 | 7.0 | 0.00 | 0.00 | 0.00 | 75 | 1018.9 |
| 20260901202945 | 83 | 233 | 1.0 | 3.0 | 0.00 | 0.00 | 0.00 | 74 | 1019.0 |
| 20260901201941 | 83 | 233 | 1.0 | 2.0 | 0.00 | 0.00 | 0.00 | 74 | 1019.0 |
| 20260901200941 | 83 | 233 | 0.0 | 1.0 | 0.00 | 0.00 | 0.00 | 74 | 1019.1 |
| 20260901195945 | 82 | 233 | 1.0 | 3.0 | 0.00 | 0.00 | 0.00 | 74 | 1019.1 |
| 20260901194940 | 82 | 190 | 1.0 | 3.0 | 0.00 | 0.00 | 0.00 | 73 | 1019.2 |
| 20260901193938 | 83 | 190 | 2.0 | 4.0 | 0.00 | 0.00 | 0.00 | 73 | 1019.1 |
| 20260901192938 | 83 | 13 | 0.0 | 2.0 | 0.00 | 0.00 | 0.00 | 73 | 1019.0 |
| 20260901190938 | 83 | 13 | 1.0 | 3.0 | 0.00 | 0.00 | 0.00 | 72 | 1018.9 |
| 20260901185938 | 83 | 13 | 0.0 | 1.0 | 0.00 | 0.00 | 0.00 | 72 | 1018.8 |
| 20260901184941 | 83 | 13 | 0.0 | 2.0 | 0.00 | 0.00 | 0.00 | 72 | 1018.8 |
| 20260901183938 | 83 | 13 | 0.0 | 2.0 | 0.00 | 0.00 | 0.00 | 72 | 1018.7 |
| 20260901182941 | 83 | 13 | 0.0 | 2.0 | 0.00 | 0.00 | 0.00 | 72 | 1018.6 |
| 20260901181938 | 83 | 13 | 0.0 | 1.0 | 0.00 | 0.00 | 0.00 | 72 | 1018.4 |
| 20260901175939 | 84 | 13 | 0.0 | 1.0 | 0.00 | 0.00 | 0.00 | 71 | 1018.4 |
| 20260901174934 | 84 | 13 | 0.0 | 3.0 | 0.00 | 0.00 | 0.00 | 70 | 1018.2 |
| 20260901172931 | 85 | 13 | 1.0 | 4.0 | 0.00 | 0.00 | 0.00 | 69 | 1018.2 |
| 20260901171929 | 85 | 13 | 2.0 | 4.0 | 0.00 | 0.00 | 0.00 | 69 | 1018.1 |
| 20260901170930 | 85 | 13 | 3.0 | 4.0 | 0.00 | 0.00 | 0.00 | 68 | 1018.1 |
| 20260901165933 | 85 | 24 | 2.0 | 4.0 | 0.00 | 0.00 | 0.00 | 68 | 1018.0 |
| 20260901164929 | 85 | 30 | 2.0 | 5.0 | 0.00 | 0.00 | 0.00 | 67 | 1018.1 |
| 20260901163928 | 86 | 30 | 2.0 | 5.0 | 0.00 | 0.00 | 0.00 | 67 | 1018.0 |
| 20260901162928 | 86 | 16 | 3.0 | 6.0 | 0.00 | 0.00 | 0.00 | 66 | 1018.1 |
| 20260901161927 | 86 | 338 | 4.0 | 8.0 | 0.00 | 0.00 | 0.00 | 66 | 1018.1 |
| 20260901160928 | 87 | 9 | 3.0 | 8.0 | 0.00 | 0.00 | 0.00 | 65 | 1018.0 |
| 20260901154930 | 87 | 344 | 4.0 | 7.0 | 0.00 | 0.00 | 0.00 | 64 | 1018.0 |
| 20260901150932 | 87 | 9 | 5.0 | 8.0 | 0.00 | 0.00 | 0.00 | 64 | 1018.1 |
| 20260901145929 | 87 | 340 | 4.0 | 8.0 | 0.00 | 0.00 | 0.00 | 64 | 1018.0 |
| 20260901143930 | 87 | 5 | 4.0 | 9.0 | 0.00 | 0.00 | 0.00 | 63 | 1018.1 |
| 20260901142934 | 87 | 23 | 5.0 | 9.0 | 0.00 | 0.00 | 0.00 | 62 | 1018.0 |
| 20260901141932 | 87 | 355 | 6.0 | 10.0 | 0.00 | 0.00 | 0.00 | 63 | 1018.0 |
| 20260901140933 | 87 | 24 | 7.0 | 12.0 | 0.00 | 0.00 | 0.00 | 62 | 1017.9 |
| 20260901135927 | 87 | 13 | 7.0 | 11.0 | 0.00 | 0.00 | 0.00 | 62 | 1018.0 |
| 20260901134935 | 87 | 340 | 7.0 | 11.0 | 0.00 | 0.00 | 0.00 | 62 | 1018.0 |
| 20260901133929 | 88 | 351 | 7.0 | 11.0 | 0.00 | 0.00 | 0.00 | 61 | 1017.9 |
| 20260901132927 | 88 | 355 | 6.0 | 12.0 | 0.00 | 0.00 | 0.00 | 59 | 1018.0 |
| 20260901131926 | 88 | 26 | 6.0 | 11.0 | 0.00 | 0.00 | 0.00 | 59 | 1017.9 |
| 20260901130925 | 88 | 5 | 7.0 | 11.0 | 0.00 | 0.00 | 0.00 | 58 | 1018.0 |
| 20260901124930 | 89 | 338 | 5.0 | 11.0 | 0.00 | 0.00 | 0.00 | 57 | 1018.0 |
| 20260901123927 | 89 | 0 | 6.0 | 12.0 | 0.00 | 0.00 | 0.00 | 55 | 1018.0 |
| 20260901121927 | 89 | 355 | 7.0 | 12.0 | 0.00 | 0.00 | 0.00 | 53 | 1018.2 |
| 20260901120925 | 89 | 5 | 7.0 | 12.0 | 0.00 | 0.00 | 0.00 | 54 | 1018.2 |
| 20260901113923 | 89 | 21 | 6.0 | 12.0 | 0.00 | 0.00 | 0.00 | 55 | 1018.2 |